Overview Statistics Trail Chart Weather Telemetry Raw packets
 

This is the latest recevied weather packets stored in our database for station/object N9DMT-13. If no packets are shown the sender has not sent any weather packets the latest 10 day(s).

<< 33 34 35 36 37 38 39 >>
Time Temp. Humidity Pressure Rain* Wind** Luminosity Snow
1777664893 11.11° C 34% 984.9 hPa 0 mm - - -
1777664592 10.56° C 38% 984.9 hPa 0 mm - - -
1777664292 10.56° C 39% 985 hPa 0 mm - - -
1777663991 10.56° C 35% 984.9 hPa 0 mm - - -
1777663690 10° C 40% 984.8 hPa 0 mm - - -
1777663390 10.56° C 38% 985 hPa 0 mm - - -
1777663089 11.11° C 38% 984.7 hPa 0 mm - - -
1777662788 11.67° C 36% 984.9 hPa 0 mm - - -
1777662487 11.67° C 36% 984.9 hPa 0 mm - - -
1777662187 12.22° C 36% 984.9 hPa 0 mm - - -
1777661887 11.11° C 41% 984.8 hPa 0 mm - - -
1777661586 11.11° C 42% 985 hPa 0 mm - - -
1777661285 11.11° C 38% 985 hPa 0 mm - - -
1777660985 11.67° C 39% 984.8 hPa 0 mm - - -
1777660684 11.67° C 40% 984.8 hPa 0 mm - - -
1777660383 10.56° C 41% 985 hPa 0 mm - - -
1777660082 10.56° C 41% 984.7 hPa 0 mm - - -
1777659782 11.67° C 40% 984.7 hPa 0 mm - - -
1777659481 12.22° C 40% 984.6 hPa 0 mm - - -
1777659180 11.67° C 43% 984.7 hPa 0 mm - - -
1777658879 11.11° C 39% 984.8 hPa 0 mm - - -
1777658578 11.11° C 40% 985 hPa 0 mm - - -
1777658277 11.11° C 38% 984.9 hPa 0 mm - - -
1777657977 11.11° C 41% 984.8 hPa 0 mm - - -
1777657676 10° C 42% 984.9 hPa 0 mm - - -

* Rain latest hour (hover to see other rain measurements)
** Current wind speed in m/s (hover to see current wind gust speed)